| time (UTC) | temp C | wind direction | speed KPH | gust KPH | rain 1hr cm | rain 24hr cm | rain mn cm | humidity % | barometer mb |
| 20260504221015 | 13 | 239 | 1.6 | 4.8 | 0.00 | 0.00 | 0.00 | 61 | 1013.2 |
| 20260504220136 | 13 | 245 | 0.0 | 3.2 | 0.00 | 0.00 | 0.00 | 60 | 1013.2 |
| 20260504215016 | 13 | 246 | 1.6 | 3.2 | 0.00 | 0.00 | 0.00 | 59 | 1013.2 |
| 20260504214015 | 14 | 219 | 1.6 | 4.8 | 0.00 | 0.00 | 0.00 | 58 | 1013.3 |
| 20260504213015 | 14 | 233 | 1.6 | 4.8 | 0.00 | 0.00 | 0.00 | 56 | 1013.3 |
| 20260504212036 | 15 | 269 | 3.2 | 8.0 | 0.00 | 0.00 | 0.00 | 55 | 1013.2 |
| 20260504211015 | 15 | 281 | 1.6 | 4.8 | 0.00 | 0.00 | 0.00 | 55 | 1013.1 |
| 20260504210016 | 15 | 297 | 3.2 | 4.8 | 0.00 | 0.00 | 0.00 | 55 | 1013.1 |
| 20260504205036 | 15 | 295 | 3.2 | 6.4 | 0.00 | 0.00 | 0.00 | 55 | 1013.0 |
| 20260504204016 | 15 | 289 | 3.2 | 9.7 | 0.00 | 0.00 | 0.00 | 56 | 1012.9 |
| 20260504203036 | 15 | 304 | 3.2 | 9.7 | 0.00 | 0.00 | 0.00 | 55 | 1012.8 |
| 20260504202016 | 15 | 308 | 3.2 | 6.4 | 0.00 | 0.00 | 0.00 | 55 | 1012.7 |
| 20260504201016 | 15 | 301 | 4.8 | 11.3 | 0.00 | 0.00 | 0.00 | 55 | 1012.5 |
| 20260504200156 | 15 | 303 | 3.2 | 8.0 | 0.00 | 0.00 | 0.00 | 55 | 1012.3 |
| 20260504195035 | 15 | 314 | 3.2 | 8.0 | 0.00 | 0.00 | 0.00 | 54 | 1012.2 |
| 20260504194016 | 15 | 317 | 3.2 | 8.0 | 0.00 | 0.00 | 0.00 | 53 | 1011.9 |
| 20260504193016 | 15 | 301 | 3.2 | 8.0 | 0.00 | 0.00 | 0.00 | 53 | 1011.6 |
| 20260504192015 | 16 | 295 | 3.2 | 8.0 | 0.00 | 0.00 | 0.00 | 53 | 1011.7 |
| 20260504191016 | 16 | 324 | 4.8 | 12.9 | 0.00 | 0.00 | 0.00 | 52 | 1011.5 |
| 20260504190016 | 16 | 316 | 9.7 | 20.9 | 0.00 | 0.00 | 0.00 | 50 | 1011.5 |
| 20260504185015 | 17 | 328 | 8.0 | 14.5 | 0.00 | 0.00 | 0.00 | 49 | 1011.5 |
| 20260504184016 | 17 | 332 | 4.8 | 14.5 | 0.00 | 0.00 | 0.00 | 49 | 1011.4 |
| 20260504183016 | 18 | 293 | 8.0 | 14.5 | 0.00 | 0.00 | 0.00 | 48 | 1011.3 |
| 20260504182036 | 18 | 325 | 4.8 | 11.3 | 0.00 | 0.00 | 0.00 | 48 | 1011.3 |
| 20260504181036 | 18 | 308 | 6.4 | 14.5 | 0.00 | 0.00 | 0.00 | 47 | 1011.3 |
| 20260504180016 | 18 | 331 | 6.4 | 16.1 | 0.00 | 0.00 | 0.00 | 44 | 1011.3 |
| 20260504175036 | 18 | 266 | 8.0 | 17.7 | 0.00 | 0.00 | 0.00 | 39 | 1011.2 |
| 20260504174016 | 18 | 264 | 12.9 | 19.3 | 0.00 | 0.00 | 0.00 | 39 | 1011.2 |
| 20260504173016 | 18 | 278 | 8.0 | 17.7 | 0.00 | 0.00 | 0.00 | 43 | 1011.2 |
| 20260504172036 | 19 | 268 | 9.7 | 22.5 | 0.00 | 0.00 | 0.00 | 39 | 1011.2 |
| 20260504171016 | 19 | 275 | 9.7 | 20.9 | 0.00 | 0.00 | 0.00 | 39 | 1011.2 |
| 20260504151016 | 20 | 275 | 14.5 | 32.2 | 0.00 | 0.00 | 0.00 | 37 | 1011.3 |
| 20260504141036 | 19 | 265 | 14.5 | 30.6 | 0.00 | 0.00 | 0.00 | 44 | 1011.7 |
| 20260504081016 | 12 | 255 | 4.8 | 8.0 | 0.00 | 0.00 | 0.00 | 80 | 1013.0 |
| 20260504050016 | 11 | 258 | 3.2 | 9.7 | 0.00 | 0.08 | 0.00 | 79 | 1011.8 |
| 20260504045036 | 11 | 263 | 4.8 | 8.0 | 0.00 | 0.08 | 0.00 | 79 | 1011.8 |
| 20260504044016 | 11 | 269 | 3.2 | 8.0 | 0.00 | 0.08 | 0.00 | 79 | 1011.8 |
| 20260504043016 | 11 | 272 | 3.2 | 8.0 | 0.00 | 0.08 | 0.00 | 78 | 1011.8 |
| 20260504042016 | 11 | 269 | 3.2 | 8.0 | 0.00 | 0.08 | 0.00 | 77 | 1011.8 |
| 20260504041016 | 12 | 270 | 3.2 | 6.4 | 0.00 | 0.08 | 0.00 | 77 | 1012.0 |
| 20260504040017 | 12 | 264 | 3.2 | 8.0 | 0.00 | 0.08 | 0.00 | 77 | 1012.1 |
| 20260504035016 | 12 | 266 | 3.2 | 6.4 | 0.00 | 0.08 | 0.00 | 76 | 1012.1 |
| 20260504034016 | 12 | 266 | 3.2 | 6.4 | 0.00 | 0.08 | 0.00 | 76 | 1012.0 |
| 20260504033016 | 12 | 245 | 3.2 | 6.4 | 0.00 | 0.08 | 0.00 | 75 | 1012.1 |
| 20260504032017 | 12 | 213 | 3.2 | 8.0 | 0.00 | 0.08 | 0.00 | 75 | 1012.1 |
| 20260504031016 | 12 | 239 | 3.2 | 6.4 | 0.00 | 0.08 | 0.00 | 74 | 1012.1 |
| 20260504030017 | 12 | 260 | 3.2 | 8.0 | 0.00 | 0.08 | 0.00 | 74 | 1012.2 |
| 20260504025036 | 12 | 266 | 1.6 | 6.4 | 0.00 | 0.08 | 0.00 | 74 | 1012.1 |
| 20260504024036 | 12 | 264 | 3.2 | 4.8 | 0.00 | 0.08 | 0.00 | 74 | 1012.2 |
| 20260504023036 | 12 | 271 | 3.2 | 4.8 | 0.00 | 0.08 | 0.00 | 73 | 1012.2 |
| 20260504022016 | 12 | 269 | 3.2 | 6.4 | 0.00 | 0.08 | 0.00 | 73 | 1012.2 |
| 20260504021016 | 13 | 251 | 1.6 | 4.8 | 0.00 | 0.08 | 0.00 | 73 | 1012.3 |
| 20260504020016 | 13 | 243 | 3.2 | 8.0 | 0.00 | 0.08 | 0.00 | 72 | 1012.2 |
| 20260504015016 | 13 | 244 | 1.6 | 8.0 | 0.00 | 0.08 | 0.00 | 72 | 1012.3 |
| 20260504014016 | 13 | 261 | 1.6 | 6.4 | 0.00 | 0.08 | 0.00 | 71 | 1012.5 |
| 20260504013016 | 13 | 257 | 3.2 | 6.4 | 0.00 | 0.08 | 0.00 | 70 | 1012.5 |
| 20260504012016 | 14 | 266 | 1.6 | 9.7 | 0.00 | 0.08 | 0.00 | 69 | 1012.6 |
| 20260504011016 | 14 | 269 | 3.2 | 8.0 | 0.00 | 0.08 | 0.00 | 69 | 1012.6 |
| 20260504010037 | 14 | 243 | 1.6 | 4.8 | 0.00 | 0.08 | 0.00 | 68 | 1012.6 |
| 20260504005016 | 14 | 261 | 1.6 | 3.2 | 0.00 | 0.08 | 0.00 | 68 | 1012.6 |
| 20260504004016 | 14 | 262 | 1.6 | 4.8 | 0.00 | 0.08 | 0.00 | 67 | 1012.7 |
| 20260504003016 | 14 | 264 | 1.6 | 3.2 | 0.00 | 0.08 | 0.00 | 67 | 1012.7 |
| 20260504002016 | 15 | 274 | 1.6 | 4.8 | 0.00 | 0.08 | 0.00 | 67 | 1012.7 |
| 20260504001016 | 15 | 267 | 1.6 | 6.4 | 0.00 | 0.08 | 0.00 | 66 | 1012.8 |
| 20260504000017 | 15 | 259 | 3.2 | 6.4 | 0.00 | 0.08 | 0.00 | 66 | 1012.8 |
| 20260503235016 | 15 | 234 | 1.6 | 6.4 | 0.00 | 0.08 | 0.08 | 66 | 1012.9 |
| 20260503234016 | 15 | 266 | 3.2 | 6.4 | 0.00 | 0.08 | 0.08 | 65 | 1013.1 |
| 20260503233016 | 15 | 255 | 3.2 | 6.4 | 0.00 | 0.08 | 0.08 | 65 | 1013.2 |
| 20260503232016 | 15 | 240 | 3.2 | 6.4 | 0.00 | 0.08 | 0.08 | 65 | 1013.2 |
| 20260503231016 | 15 | 239 | 1.6 | 6.4 | 0.00 | 0.08 | 0.08 | 64 | 1013.1 |
| 20260503230016 | 15 | 249 | 3.2 | 6.4 | 0.00 | 0.08 | 0.08 | 64 | 1013.1 |
| 20260503225036 | 15 | 246 | 3.2 | 6.4 | 0.00 | 0.08 | 0.08 | 64 | 1013.1 |
| 20260503224036 | 15 | 252 | 1.6 | 4.8 | 0.00 | 0.15 | 0.08 | 64 | 1013.0 |
| 20260503223016 | 15 | 244 | 1.6 | 4.8 | 0.00 | 0.15 | 0.08 | 65 | 1013.0 |
| 20260503222016 | 15 | 229 | 3.2 | 4.8 | 0.00 | 0.15 | 0.08 | 64 | 1013.1 |